Regional Weather Roundup
Issued by NWS

Home | Current Version | Previous Version | Graphics & Text | Print | Product List | Glossary On
Versions: 1 2 3 4 5 6 7 8 9 10 11 12 13 14 15 16 17 18 19 20 21 22 23 24 25 26 27 28 29 30 31 32 33 34 35 36 37 38 39 40 41 42 43 44 45 46 47 48 49 50
769
ASUS43 KMKX 271400
RWRWI

WISCONSIN REGIONAL WEATHER ROUNDUP
NATIONAL WEATHER SERVICE MILWAUKEE/SULLIVAN WI
800 AM CST MON FEB 27 2017

NOTE: "FAIR" INDICATES FEW OR NO CLOUDS BELOW 12,000 FEET WITH NO
SIGNIFICANT WEATHER AND/OR OBSTRUCTIONS TO VISIBILITY.

WIZ001-002-006>008-014>016-023>028-271500-
NORTHWEST WISCONSIN

CITY           SKY/WX    TMP DP  RH WIND       PRES   REMARKS
SUPERIOR ARPT  CLOUDY    18  13  79 CALM      29.98S
ASHLAND        LGT SNOW  20  13  74 CALM      30.00R
HAYWARD        CLOUDY    23  16  74 SE3       29.96S
SIREN          CLOUDY    24  20  85 SE5       29.95F WCI  18
CUMBERLAND     CLOUDY    25  21  86 S6        29.96R WCI  18
RICE LAKE      CLOUDY    25  21  84 SE5       29.98S WCI  20
CHETEK         SUNNY     21  19  89 CALM      29.99R
LADYSMITH      MOSUNNY   23  19  84 SE3       29.99R
EAU CLAIRE     NOT AVBL
MENOMONIE      SUNNY     17  15  93 E5        30.01R FOG     WCI   9
NEW RICHMOND   SUNNY     24  19  80 S10       29.96S WCI  14
OSCEOLA        SUNNY     25  21  85 S7        29.99S WCI  17
$$

WIZ003>005-009-010-017-018-271500-
NORTH CENTRAL WISCONSIN

CITY           SKY/WX    TMP DP  RH WIND       PRES   REMARKS
MANITOWISH WTR LGT SNOW  16  15  97 SE5       29.97R WCI   8
ARBOR VITAE    CLOUDY    19  14  80 SE3         N/A
WOODRUFF       CLOUDY    19  14  80 SE3         N/A
RHINELANDER    PTSUNNY    1  32 100 S7        30.00R WCI -12
EAGLE RIVER    CLOUDY    15   8  73 CALM      29.99R
LAND O LAKES   LGT SNOW  11   8  87 CALM      30.00S
PHILLIPS       CLOUDY    18  12  78 CALM      29.96S
TOMAHAWK       PTSUNNY   20  15  79 CALM      30.00R
MEDFORD        CLOUDY    21  19  92 S9        29.99R WCI  11
MERRILL        NOT AVBL
$$

WIZ029-030-035-036-043>047-271500-
CENTRAL WISCONSIN

CITY           SKY/WX    TMP DP  RH WIND       PRES   REMARKS
WAUSAU         PTSUNNY   23  20  88 SE6       30.03R WCI  16
MOSINEE        PTSUNNY   23  23 100 SE8       30.04S WCI  14
MARSHFIELD     SUNNY     21  19  92 S9        30.02R WCI  11
STEVENS POINT  SUNNY     21  20  96 CALM      30.06S
WAUPACA        SUNNY     21  18  90 CALM      30.09R FOG
WAUTOMA        NOT AVBL
WISC RAPIDS    SUNNY     24  22  91 S6        30.07R WCI  17
CAMP DOUGLAS   NOT AVBL
$$

WIZ011>013-019>022-031-037>040-048>050-271500-
NORTHEAST WISCONSIN

CITY           SKY/WX    TMP DP  RH WIND       PRES   REMARKS
ANTIGO         CLOUDY    19  13  76 S8        30.03R WCI   9
SHAWANO        SUNNY     26  16  66 S3        30.10R
OCONTO         MOSUNNY   15  10  78 CALM      30.11R
STURGEON BAY   MOSUNNY   26  16  65 SE9       30.11S WCI  17
GREEN BAY      PTSUNNY   25  21  85 S7        30.11S WCI  17
MANITOWOC      NOT AVBL
APPLETON       MOSUNNY   21  21 100 VRB5      30.08R WCI  15
CLINTONVILLE   SUNNY     23  19  86 CALM      30.09R
OSHKOSH        SUNNY     23  20  88 S6        30.10R WCI  16
$$

WIZ032>034-041-042-053>061-271500-
SOUTHWEST WISCONSIN

CITY           SKY/WX    TMP DP  RH WIND       PRES   REMARKS
LA CROSSE      SUNNY     27  22  81 SE5       30.06R WCI  22
SPARTA         SUNNY     15  13  95 CALM      30.06S
VIROQUA        SUNNY     26  23  88 SE7       30.03F WCI  19
BOSCOBEL       SUNNY     24  22  91 CALM      30.09S FOG
PRAIRIE DU CHI SUNNY     24  22  91 E3        30.07F
PLATTEVILLE    CLOUDY    28  26  96 E7        30.07F WCI  20
$$

WIZ056-057-062-063-064-067-068-271500-
SOUTH CENTRAL WISCONSIN

CITY           SKY/WX    TMP DP  RH WIND       PRES   REMARKS
REEDSBURG      SUNNY     24  23  95 CALM      30.07S
BARABOO/DELLS  SUNNY     25  21  86 S8        30.07S WCI  16
LONE ROCK      NOT AVBL
MINERAL POINT  SUNNY     30  28  93 SE7       30.07S WCI  23
MADISON        MOSUNNY   27  24  89 S3        30.10R
MIDDLETON      SUNNY     25  24  93 CALM      30.10S
WATERTOWN      SUNNY     25  25 100 CALM      30.11R
MONROE         SUNNY     30  27  86 SE7       30.09R WCI  23
JANESVILLE     MOSUNNY   28  27  93 CALM      30.11S
$$

WIZ051-052-058>065-066-070>072-271500-
SOUTHEAST WISCONSIN

CITY           SKY/WX    TMP DP  RH WIND       PRES   REMARKS
MILWAUKEE      MOSUNNY   32  25  75 CALM      30.14R
WAUKESHA       SUNNY     27  25  93 CALM      30.14R
MILWAUKEE/TIMM SUNNY     27  21  80 S5        30.14R WCI  21
RACINE         SUNNY     32  28  85 CALM      30.16R
KENOSHA        SUNNY     32  30  92 CALM      30.14R
FOND DU LAC    SUNNY     27  20  75 S6        30.11R WCI  20
SHEBOYGAN      SUNNY     23  20  88 S5        30.13R WCI  17
WEST BEND      SUNNY     27  27 100 E3        30.12R
JUNEAU         SUNNY     26  24  89 CALM      30.12R
$$

LSZ147-162-271500-
LAKE SUPERIOR

STATION/POSITION TIME  TEMP    WIND        PRES    WAVE
                       AIR SEA DIR/SP/G            HT/PER
                 (UTC) (F)     (DEG/KT/KT) (MB)    (FT/S)
DEVILS ISLAND    1300   24     160/  3/  4 1017.0R
PORT WING        1330   21      CALM  /  4 1015.6S
SAXON HARBOR     1340   22     190/  4/  7 1015.9R
$$

LMZ867-665-643>646-271500-
LAKE MICHIGAN

STATION/POSITION TIME  TEMP    WIND        PRES    WAVE
                       AIR SEA DIR/SP/G            HT/PER
                 (UTC) (F)     (DEG/KT/KT) (MB)    (FT/S)
CHAMBERS ISLAND  1340   27     110/  3/  4 1019.3R
NORTHPORT PIER   1340   26     150/  1/  2 1019.6S
SISTER BAY       1335             CALM       N/A
KEWAUNEE LAKESHO 1330   30     130/  4/  8 1019.5R
SHEBOYGAN LAKESH 1300   29     210/  5/  5 1020.5R
PORT WASHINGTON  1330   31     240/  2/  3 1021.3S
MILWAUKEE LAKESH 1330   32     190/  5/  5   N/A
KENOSHA   LAKESH 1300   31        CALM     1020.3
$$

TC  - TEMPERATURE IN CELSIUS
VSB - VISIBILITY IN STATUTE MILES
WCI - WIND CHILL INDEX
HX  - HEAT INDEX





USA.gov is the U.S. government's official web portal to all federal, state and local government web resources and services.